15 daagse weersverwachting Oviedo (ES)

  • Overzicht
  • Per uur
  • 15 dagen
  • Extra
  • Vergelijk
  • Kaarten
  • Dagkaart
  • Meer »
  • Info
  • Statistieken
  • Directe link
    Temp 6h Neerslag Wind  
 08:14     18:02    Daglengte: 9:48 Morgen
01:00
 
2
07:00
2.2 mm
3
13:00
12°
1.7 mm
2
19:00
11°
4.9 mm
2
 08:15     18:01    Daglengte: 9:46 Woensdag 13 Nov
01:00
11°
24.6 mm
2
07:00
10°
40.6 mm
3
13:00
11°
30.5 mm
4
19:00
10°
6.2 mm
4
 08:17     18:00    Daglengte: 9:43 Donderdag 14 Nov
01:00
25.8 mm
6
07:00
41.5 mm
5
13:00
25.6 mm
9
19:00
66.9 mm
3
Locatie info
Region: Principado de Asturias
Latitude: 43.3627°N
Longitude: -5.8477°E
237 masl
Postcode: 33003
Temp/Neerslag /Baro Onweer/Dauwpunt
    Temp Baro 1h Neerslag Dauwpunt Wind UV Bewolking  
 08:14     18:02    Daglengte: 9:48 Morgen
00:00
Voelt als: 6.7°
1020.6 hPa
18%
5.5°
2
Windvlaag: 1.4 km/h
63%
01:00
Voelt als: 6.8°
1020.2 hPa
17%
5.5°
2
Windvlaag: 1.6 km/h
77%
02:00
Voelt als: 6.7°
1019.8 hPa
59%
5.5°
2
Windvlaag: 1.7 km/h
78%
03:00
Voelt als: 6.3°
1019.3 hPa
32%
5.2°
3
Windvlaag: 1.3 km/h
78%
04:00
Voelt als: 6.5°
1018.8 hPa
33%
5.2°
3
Windvlaag: 1.3 km/h
67%
05:00
Voelt als: 6.2°
1018.5 hPa 0.6 mm
82%
5.3°
3
Windvlaag: 1.8 km/h
65%
06:00
Voelt als: 6.4°
1018.3 hPa 0.9 mm
82%
5.6°
3
Windvlaag: 2 km/h
73%
07:00
Voelt als: 6.4°
1017.9 hPa 0.6 mm
82%
5.7°
3
Windvlaag: 1.9 km/h
73%
08:00
Voelt als: 6.5°
1017.7 hPa 0.8 mm
82%
5.7°
3
Windvlaag: 1.8 km/h
76%
09:00
Voelt als: 6.8°
1017.5 hPa 0.8 mm
80%
6.0°
3
Windvlaag: 2.4 km/h
63%
10:00
Voelt als: 7.6°
1017.2 hPa
76%
6.3°
3
Windvlaag: 2.4 km/h
70%
11:00
10°
1016.7 hPa
39%
7.0°
3
Windvlaag: 1.7 km/h
74%
12:00
11°
1016.1 hPa
63%
7.1°
3
Windvlaag: 1.7 km/h
71%
13:00
12°
1015.2 hPa
14%
7.4°
2
Windvlaag: 1.6 km/h
68%
14:00
12°
1013.9 hPa
14%
7.5°
2
Windvlaag: 1.5 km/h
75%
15:00
12°
1012.7 hPa
69%
8.4°
1
Windvlaag: 1.8 km/h
84%
16:00
11°
1011.1 hPa
80%
9.0°
2
Windvlaag: 1.4 km/h
81%
17:00
11°
1009.8 hPa 1.5 mm
82%
8.8°
1
Windvlaag: 1.2 km/h
90%
18:00
11°
1008.7 hPa 1.7 mm
82%
8.8°
2
Windvlaag: 1.9 km/h
91%
19:00
11°
1007.7 hPa 1.7 mm
82%
8.7°
2
Windvlaag: 2.4 km/h
91%
20:00
10°
1006.4 hPa 2.3 mm
82%
8.6°
2
Windvlaag: 2.5 km/h
91%
21:00
10°
1005.6 hPa 3.0 mm
82%
8.6°
2
Windvlaag: 1.6 km/h
91%
22:00
10°
1004.7 hPa 4.0 mm
82%
8.8°
2
Windvlaag: 1.7 km/h
90%
23:00
10°
1004.2 hPa 4.3 mm
82%
9.1°
2
Windvlaag: 1.7 km/h
91%
 08:15     18:01    Daglengte: 9:46 Woensdag 13 Nov
00:00
11°
1003.4 hPa 4.7 mm
82%
9.3°
2
Windvlaag: 1.5 km/h
90%
01:00
11°
1002.7 hPa 6.3 mm
82%
9.5°
2
Windvlaag: 1.8 km/h
91%
02:00
10°
1003.2 hPa 8.6 mm
82%
9.3°
2
Windvlaag: 1.2 km/h
91%
03:00
10°
1003.9 hPa 6.4 mm
82%
9.3°
2
Windvlaag: 0.8 km/h
89%
04:00
10°
Voelt als: 8.3°
1004.7 hPa 7.2 mm
82%
9.2°
3
Windvlaag: 0.6 km/h
91%
05:00
10°
Voelt als: 8.4°
1006.3 hPa 6.2 mm
82%
9.2°
3
Windvlaag: -0.7 km/h
89%
06:00
10°
Voelt als: 8.6°
1008.2 hPa 6.2 mm
82%
9.5°
3
Windvlaag: -0.4 km/h
91%
07:00
10°
Voelt als: 8.2°
1010.0 hPa 6.1 mm
82%
8.8°
3
Windvlaag: 1.3 km/h
90%
08:00
Voelt als: 8.5°
1011.4 hPa 6.2 mm
82%
8.5°
2
Windvlaag: 0.5 km/h
89%
09:00
Voelt als: 8.9°
1012.5 hPa 5.2 mm
82%
8.3°
2
Windvlaag: -1.8 km/h
79%
10:00
10°
Voelt als: 9.1°
1013.6 hPa 6.4 mm
82%
8.3°
2
Windvlaag: -1.2 km/h
64%
11:00
10°
1013.9 hPa 6.4 mm
82%
8.3°
2
Windvlaag: 1.7 km/h
73%
12:00
11°
1014.0 hPa 6.4 mm
82%
7.6°
3
Windvlaag: 2 km/h
34%
13:00
11°
1013.9 hPa
82%
7.0°
4
Windvlaag: 1 km/h
65%
14:00
11°
1013.3 hPa
79%
6.0°
4
Windvlaag: 0.3 km/h
63%
15:00
11°
1012.8 hPa 6.2 mm
76%
5.7°
4
Windvlaag: 0.4 km/h
71%
16:00
11°
1012.3 hPa
78%
5.3°
3
Windvlaag: 0.4 km/h
76%
17:00
11°
1011.9 hPa
37%
5.8°
3
Windvlaag: 0.2 km/h
83%
18:00
10°
Voelt als: 8.4°
1011.3 hPa
84%
5.1°
3
Windvlaag: 1 km/h
90%
19:00
10°
Voelt als: 7.6°
1011.0 hPa
40%
3.8°
4
Windvlaag: 2.7 km/h
79%
20:00
10°
Voelt als: 7.5°
1009.2 hPa
24%
3.9°
5
Windvlaag: 3.1 km/h
60%
21:00
10°
Voelt als: 7.4°
1007.7 hPa
25%
3.4°
5
Windvlaag: 2.3 km/h
86%
22:00
10°
Voelt als: 7.3°
1007.1 hPa 4.7 mm
97%
4.6°
6
Windvlaag: 2.5 km/h
91%
23:00
Voelt als: 6.1°
1007.6 hPa 6.3 mm
100%
6.7°
6
Windvlaag: 0.8 km/h
100%
 08:17     18:00    Daglengte: 9:43 Donderdag 14 Nov
00:00
Voelt als: 5.6°
1007.4 hPa 7.7 mm
100%
6.5°
5
Windvlaag: 0.5 km/h
100%
01:00
Voelt als: 4.5°
1007.2 hPa 7.2 mm
100%
5.9°
6
Windvlaag: 0.2 km/h
100%
02:00
Voelt als: 4.2°
1006.9 hPa 6.5 mm
100%
5.9°
5
Windvlaag: 0 km/h
100%
03:00
Voelt als: 3.4°
1005.8 hPa 5.8 mm
100%
5.3°
5
Windvlaag: -0.4 km/h
99%
04:00
Voelt als: 2.8°
1004.7 hPa 7.9 mm
100%
3.2°
5
Windvlaag: 0.1 km/h
92%
05:00
Voelt als: 2.3°
1003.8 hPa 5.6 mm
100%
2.5°
5
Windvlaag: 0.5 km/h
91%
06:00
Voelt als: 2.4°
1002.9 hPa 7.8 mm
100%
2.5°
5
Windvlaag: 1.5 km/h
93%
07:00
Voelt als: 2.2°
1001.7 hPa 7.9 mm
100%
1.8°
5
Windvlaag: 1.6 km/h
91%
08:00
Voelt als: 2.5°
1000.6 hPa 5.7 mm
100%
1.0°
5
Windvlaag: 1.8 km/h
84%
09:00
Voelt als: 2.6°
999.5 hPa
94%
1.9°
6
Windvlaag: 3.5 km/h
84%
10:00
Voelt als: 3.3°
999.2 hPa 7.8 mm
24%
2.4°
6
Windvlaag: 3.1 km/h
87%
11:00
Voelt als: 3.6°
998.4 hPa
22%
2.9°
7
Windvlaag: 4.2 km/h
92%
12:00
Voelt als: 4.6°
997.8 hPa 6.0 mm
94%
3.6°
6
Windvlaag: 2.6 km/h
92%
13:00
Voelt als: 3.0°
997.4 hPa 6.2 mm
100%
4.3°
9
Windvlaag: 3.1 km/h
97%
14:00
Voelt als: 2.9°
998.4 hPa 14.2 mm
98%
5.5°
7
Windvlaag: 2.5 km/h
97%
15:00
Voelt als: 2.9°
999.1 hPa 14.7 mm
100%
5.8°
7
Windvlaag: 2.7 km/h
95%
16:00
Voelt als: 3.2°
999.6 hPa 8.8 mm
100%
5.8°
6
Windvlaag: 1.9 km/h
94%
17:00
Voelt als: 3.0°
1000.1 hPa 9.4 mm
100%
4.6°
4
Windvlaag: 1 km/h
97%
18:00
Voelt als: 2.2°
1001.3 hPa 10.1 mm
100%
4.0°
3
Windvlaag: 0.4 km/h
95% warningclass
19:00
Voelt als: 2.5°
1001.7 hPa 9.7 mm
100%
3.5°
3
Windvlaag: 0.3 km/h
70%
20:00
Voelt als: 2.2°
1004.5 hPa 49.4 mm
100%
3.2°
3
Windvlaag: 9.2 km/h
66%
21:00
Voelt als: 1.4°
1004.7 hPa 50.2 mm
100%
3.2°
4
Windvlaag: 14.7 km/h
73%
22:00
Voelt als: 1.3°
1004.9 hPa 50.8 mm
100%
3.5°
5
Windvlaag: 14.2 km/h
79%
23:00
Voelt als: 1.7°
1005.2 hPa 52.7 mm
100%
3.9°
4
Windvlaag: 13.5 km/h
85%
Temp/Neerslag /Baro Onweer/Dauwpunt
    Temp Baro Neerslag Dauwpunt Wind Bewolking  
 08:14     18:02    Daglengte: 9:48 Morgen
01:00
Voelt als: 6.8°
1020.2 hPa   5.5°
2
77%
04:00
Voelt als: 6.5°
1018.8 hPa   5.2°
3
67%
07:00
Voelt als: 6.4°
1017.9 hPa 2.2 mm 5.7°
3
73%
10:00
Voelt als: 7.6°
1017.2 hPa 1.7 mm 6.3°
3
70%
13:00
12°
1015.2 hPa   7.4°
2
68%
16:00
11°
1011.1 hPa   9.0°
2
81%
19:00
11°
1007.7 hPa 4.9 mm 8.7°
2
91%
22:00
10°
1004.7 hPa 9.3 mm 8.8°
2
90%
 08:15     18:01    Daglengte: 9:46 Woensdag 13 Nov
01:00
11°
1002.7 hPa 15.2 mm 9.5°
2
91%
04:00
10°
Voelt als: 8.3°
1004.7 hPa 22.1 mm 9.2°
3
91%
07:00
10°
Voelt als: 8.2°
1010.0 hPa 18.5 mm 8.8°
3
90%
10:00
10°
Voelt als: 9.1°
1013.6 hPa 17.8 mm 8.3°
2
64%
13:00
11°
1013.9 hPa 12.7 mm 7.0°
4
65%
16:00
11°
1012.3 hPa 6.2 mm 5.3°
3
76%
19:00
10°
Voelt als: 7.6°
1011.0 hPa   3.8°
4
79%
22:00
10°
Voelt als: 7.3°
1007.1 hPa 4.7 mm 4.6°
6
91%
 08:17     18:00    Daglengte: 9:43 Donderdag 14 Nov
01:00
Voelt als: 4.5°
1007.2 hPa 21.1 mm 5.9°
6
100%
04:00
Voelt als: 2.8°
1004.7 hPa 20.2 mm 3.2°
5
92%
07:00
Voelt als: 2.2°
1001.7 hPa 21.3 mm 1.8°
5
91%
10:00
Voelt als: 3.3°
999.2 hPa 13.5 mm 2.4°
6
87%
13:00
Voelt als: 3.0°
997.4 hPa 12.2 mm 4.3°
9
97%
16:00
Voelt als: 3.2°
999.6 hPa 37.7 mm 5.8°
6
94%
19:00
Voelt als: 2.5°
1001.7 hPa 29.2 mm 3.5°
3
70%
22:00
Voelt als: 1.3°
1004.9 hPa 150.3 mm 3.5°
5
79%
 08:18     17:59    Daglengte: 9:41 Vrijdag 15 Nov
01:00
Voelt als: 1.8°
1005.6 hPa 162.2 mm 4.2°
5
100%
04:00
Voelt als: 1.4°
1007.0 hPa 74.4 mm 3.7°
4
90%
07:00
Voelt als: 1.4°
1007.4 hPa 77.5 mm 3.5°
4
90%
10:00
Voelt als: 2.5°
1007.6 hPa 82.4 mm 4.1°
4
91%
13:00
Voelt als: 3.7°
1007.7 hPa 88.4 mm 4.7°
4
92%
16:00
Voelt als: 3.1°
1009.4 hPa 92.4 mm 4.2°
3
85%
19:00
Voelt als: 2.5°
1011.3 hPa 96.3 mm 3.7°
2
77%
22:00
Voelt als: 2.5°
1012.7 hPa 97.6 mm 3.9°
3
85%
 08:19     17:58    Daglengte: 9:39 Zaterdag 16 Nov
01:00
Voelt als: 2.6°
1014.0 hPa 98.6 mm 4.3°
4
92%
04:00
Voelt als: 3.2°
1014.5 hPa 99.1 mm 4.4°
4
92%
07:00
Voelt als: 3.8°
1015.0 hPa 101.2 mm 4.6°
3
92%
10:00
Voelt als: 4.3°
1016.1 hPa 103.3 mm 5.0°
4
74%
13:00
Voelt als: 4.9°
1017.0 hPa 105.4 mm 5.5°
5
56%
16:00
Voelt als: 4.9°
1017.2 hPa 107.1 mm 5.2°
4
62%
19:00
Voelt als: 4.6°
1017.6 hPa 107.5 mm 4.8°
3
69%
22:00
Voelt als: 3.3°
1016.5 hPa 107.6 mm 3.5°
2
80%
 08:21     17:57    Daglengte: 9:36 Zondag 17 Nov
01:00
Voelt als: 2.3°
1015.3 hPa 108.5 mm 2.4°
2
92%
04:00
Voelt als: 3.8°
1011.6 hPa 111.7 mm 3.8°
2
92%
07:00
Voelt als: 5.5°
1007.9 hPa 114.9 mm 5.3°
3
92%
10:00
10°
Voelt als: 8.3°
1006.0 hPa 116.8 mm 6.5°
3
92%
13:00
12°
1004.1 hPa 119.8 mm 7.7°
3
92%
16:00
10°
1003.3 hPa 128.0 mm 6.0°
3
79%
19:00
Voelt als: 5.7°
1002.8 hPa 132.4 mm 4.1°
4
67%
22:00
Voelt als: 5.3°
1002.2 hPa 132.7 mm 4.3°
3
78%
 08:22     17:56    Daglengte: 9:34 Maandag 18 Nov
01:00
Voelt als: 5.5°
1001.6 hPa 132.7 mm 4.4°
1
90%
04:00
Voelt als: 5.1°
1002.3 hPa 132.7 mm 4.6°
2
90%
07:00
Voelt als: 5.0°
1003.2 hPa 132.7 mm 4.9°
2
90%
10:00
Voelt als: 5.7°
1005.8 hPa 133.1 mm 6.4°
3
91%
13:00
Voelt als: 6.4°
1008.4 hPa 133.6 mm 7.7°
3
92%
16:00
Voelt als: 6.7°
1010.2 hPa 134.2 mm 7.2°
2
75%
19:00
1012.1 hPa 134.3 mm 6.3°
0
57%
22:00
Voelt als: 5.2°
1012.9 hPa   4.8°
1
55%
 08:23     17:55    Daglengte: 9:32 Dinsdag 19 Nov
01:00
Voelt als: 3.2°
1013.6 hPa 268.7 mm 3.5°
2
52%
07:00
Voelt als: 2.4°
1013.7 hPa 273.4 mm 2.7°
1
73%
13:00
10°
Voelt als: 9.5°
1014.5 hPa 277.4 mm 4.9°
1
59%
19:00
Voelt als: 5.3°
1014.4 hPa 277.6 mm 4.2°
2
72%
 08:24     17:54    Daglengte: 9:30 Woensdag 20 Nov
01:00
Voelt als: -1.1°
1013.3 hPa 277.6 mm -0.7°
2
4%
07:00
Voelt als: -0.1°
1011.2 hPa 277.6 mm -1.3°
2
89%
13:00
11°
1009.3 hPa 277.6 mm 2.5°
2
55%
19:00
Voelt als: 5.0°
1006.8 hPa 277.6 mm 2.2°
2
80%
 08:26     17:54    Daglengte: 9:28 Donderdag 21 Nov
01:00
Voelt als: 5.0°
1005.3 hPa 277.6 mm 2.9°
2
89%
07:00
Voelt als: 2.5°
1004.5 hPa 277.6 mm 2.0°
3
7%
13:00
11°
1002.7 hPa 281.6 mm 4.7°
3
91%
19:00
10°
1005.5 hPa 0.6 mm 8.1°
4
62%
 08:27     17:53    Daglengte: 9:26 Vrijdag 22 Nov
01:00
10°
1006.0 hPa 1.2 mm 8.0°
4
59%
07:00
10°
Voelt als: 7.6°
1005.6 hPa 1.1 mm 7.5°
4
64%
13:00
12°
1006.2 hPa 1.2 mm 9.3°
4
67%
19:00
10°
1007.2 hPa 1.2 mm 8.0°
4
62%
 08:28     17:52    Daglengte: 9:24 Zaterdag 23 Nov
01:00
10°
1008.8 hPa 0.9 mm 8.0°
5
58%
07:00
10°
1009.6 hPa 0.6 mm 8.1°
4
63%
13:00
13°
1010.9 hPa 0.7 mm 10.3°
3
63%
19:00
11°
1011.1 hPa 1.0 mm 9.7°
3
69%
 08:29     17:52    Daglengte: 9:23 Zondag 24 Nov
01:00
11°
1011.5 hPa 0.9 mm 9.1°
4
67%
07:00
11°
1010.3 hPa 1.0 mm 9.1°
4
67%
13:00
14°
1010.4 hPa 1.2 mm 10.9°
4
66%
19:00
12°
1010.3 hPa 1.0 mm 9.8°
3
69%
 08:30     17:51    Daglengte: 9:21 Maandag 25 Nov
01:00
11°
1011.3 hPa 0.8 mm 9.1°
3
66%
07:00
11°
1011.7 hPa 1.5 mm 8.9°
2
58%
13:00
13°
1013.2 hPa 1.6 mm 10.6°
1
59%
19:00
11°
1013.2 hPa 1.6 mm 9.1°
2
61%
 08:32     17:50    Daglengte: 9:18 Dinsdag 26 Nov
01:00
10°
1013.5 hPa 1.1 mm 8.5°
3
55%
07:00
10°
Voelt als: 9.0°
1013.2 hPa 1.3 mm 7.9°
2
55%
13:00
13°
1013.9 hPa 0.5 mm 10.0°
1
49%
19:00
10°
1014.1 hPa 0.9 mm 8.4°
1
49%
  CAPE Lifted Index Hail Supercell Tornado SRH 3km CL BTM PRES CL TOP PRES Swiss DWD icon SMHI TS
 08:14     18:02    Daglengte: 9:48 Morgen
00:00 67 J/kg 10.6 K 0 % 0 % 0 % 0 m²/s² 0 0 13.87 3
01:00 54 J/kg 10.9 K 0 % 0 % 0 % 0 m²/s² 0 0 13.09 3
02:00 12 J/kg 11.1 K 0 % 0 % 0 % 0 m²/s² 0 0 12.6 3
03:00 0 J/kg 11.4 K 0 % 0 % 0 % 0 m²/s² 0 0 11.76 3
04:00 0 J/kg 12.1 K 0 % 0 % 0 % 0 m²/s² 0 0 12.4 3
05:00 0 J/kg 12.2 K 0 % 0 % 0 % 0 m²/s² 0 0 12.5 61
06:00 0 J/kg 11.7 K 0 % 0 % 0 % 0 m²/s² 0 0 12.06 61
07:00 0 J/kg 11.6 K 0 % 0 % 0 % 0 m²/s² 0 0 12.05 61
08:00 0 J/kg 11.2 K 0 % 0 % 0 % 0 m²/s² 0 0 11.86 3
09:00 0 J/kg 11.1 K 0 % 0 % 0 % 0 m²/s² 0 0 11.61 3
10:00 9 J/kg 11.0 K 0 % 0 % 0 % 0 m²/s² 0 0 11.6 3
11:00 33 J/kg 9.8 K 0 % 0 % 0 % 0 m²/s² 0 0 10.49 3
12:00 27 J/kg 9.4 K 0 % 0 % 0 % 0 m²/s² 0 0 10.21 3
13:00 4 J/kg 9.8 K 0 % 0 % 0 % 0 m²/s² 0 0 10.34 2
14:00 0 J/kg 8.6 K 0 % 0 % 0 % 0 m²/s² 0 0 8.72 3
15:00 5 J/kg 7.7 K 0 % 0 % 0 % 0 m²/s² 0 0 7.88 3
16:00 0 J/kg 6.7 K 0 % 0 % 0 % 0 m²/s² 0 0 6.88 61
17:00 0 J/kg 3.8 K 0 % 0 % 0 % 0 m²/s² 0 0 3.89 61
18:00 0 J/kg 2.8 K 0 % 0 % 0 % 0 m²/s² 0 0 2.92 61
19:00 0 J/kg 3.0 K 0 % 0 % 0 % 0 m²/s² 0 0 3.12 61
20:00 0 J/kg 2.7 K 0 % 0 % 0 % 0 m²/s² 0 0 2.82 61
21:00 0 J/kg 1.9 K 0 % 0 % 0 % 0 m²/s² 0 0 1.99 63
22:00 0 J/kg 1.5 K 0 % 0 % 0 % 0 m²/s² 0 0 1.53 63
23:00 0 J/kg 1.8 K 0 % 0 % 0 % 0 m²/s² 0 0 1.92 63
 08:15     18:01    Daglengte: 9:46 Woensdag 13 Nov
00:00 0 J/kg 0.1 K 0 % 0 % 0 % 0 m²/s² 0 0 0.1 63
01:00 91 J/kg -1.7 K 0 % 0 % 0 % 0 m²/s² 0 0 -1.67 63
02:00 376 J/kg -2.1 K 0 % 0 % 0 % 0 m²/s² 0 0 -0.21 65
03:00 278 J/kg -1.4 K 0 % 0 % 0 % 0 m²/s² 0 0 -1.04 63
04:00 41 J/kg 1.2 K 0 % 0 % 0 % 0 m²/s² 0 0 1.29 63
05:00 27 J/kg 4.1 K 0 % 0 % 0 % 0 m²/s² 0 0 4.4 63
06:00 90 J/kg 3.7 K 0 % 0 % 0 % 0 m²/s² 0 0 4.06 63
07:00 90 J/kg 5.0 K 0 % 0 % 0 % 0 m²/s² 0 0 5.81 61
08:00 94 J/kg 5.7 K 0 % 0 % 0 % 0 m²/s² 0 0 7.59 61
09:00 87 J/kg 5.7 K 0 % 0 % 0 % 0 m²/s² 0 0 10.98 61
10:00 95 J/kg 5.4 K 0 % 0 % 0 % 0 m²/s² 0 0 10.68 61
11:00 80 J/kg 5.6 K 0 % 0 % 0 % 0 m²/s² 0 0 10.91 80
12:00 68 J/kg 6.3 K 0 % 0 % 0 % 0 m²/s² 0 0 12.6 80
13:00 76 J/kg 6.3 K 0 % 0 % 0 % 0 m²/s² 0 0 12.39 80
14:00 79 J/kg 5.8 K 0 % 0 % 0 % 0 m²/s² 0 0 11.68 80
15:00 58 J/kg 5.4 K 0 % 0 % 0 % 0 m²/s² 0 0 10.41 3
16:00 19 J/kg 6.2 K 0 % 0 % 0 % 0 m²/s² 0 0 10.97 2
17:00 32 J/kg 5.5 K 0 % 0 % 0 % 0 m²/s² 0 0 10.03 3
18:00 25 J/kg 5.6 K 0 % 0 % 0 % 0 m²/s² 0 0 9.89 3
19:00 5 J/kg 5.5 K 0 % 0 % 0 % 0 m²/s² 0 0 10.24 3
20:00 8 J/kg 5.7 K 0 % 0 % 0 % 0 m²/s² 0 0 9.54 2
21:00 0 J/kg 5.7 K 0 % 0 % 0 % 0 m²/s² 0 0 7.86 3
22:00 0 J/kg 4.8 K 0 % 0 % 0 % 0 m²/s² 0 0 5.16 61
23:00 69 J/kg 3.3 K 0 % 0 % 0 % 0 m²/s² 0 0 3.96 61
 08:17     18:00    Daglengte: 9:43 Donderdag 14 Nov
00:00 98 J/kg 3.9 K 0 % 0 % 0 % 0 m²/s² 0 0 4.53 61
01:00 128 J/kg 4.3 K 0 % 0 % 0 % 0 m²/s² 0 0 5.14 61
02:00 164 J/kg 3.0 K 0 % 0 % 0 % 0 m²/s² 0 0 3.63 61
03:00 101 J/kg 0.9 K 0 % 0 % 0 % 0 m²/s² 0 0 1.38 80
04:00 0 J/kg 1.1 K 0 % 0 % 0 % 0 m²/s² 0 0 1.76 80
05:00 0 J/kg -0.4 K 0 % 0 % 0 % 0 m²/s² 0 0 2.36 80
06:00 68 J/kg -1.4 K 0 % 0 % 0 % 0 m²/s² 0 0 1.27 3
07:00 0 J/kg -0.9 K 0 % 0 % 0 % 0 m²/s² 0 0 -0.03 80
08:00 0 J/kg -0.3 K 0 % 0 % 0 % 0 m²/s² 0 0 3.87 80
09:00 0 J/kg -0.4 K 0 % 0 % 0 % 0 m²/s² 0 0 0.38 1
10:00 0 J/kg 0.2 K 0 % 0 % 0 % 0 m²/s² 0 0 1.76 3
11:00 0 J/kg -0.4 K 0 % 0 % 0 % 0 m²/s² 0 0 1.55 3
12:00 184 J/kg -1.5 K 0 % 0 % 0 % 0 m²/s² 0 0 3.27 80
13:00 232 J/kg -1.4 K 0 % 0 % 0 % 0 m²/s² 0 0 -1.04 80
14:00 320 J/kg -1.4 K 0 % 0 % 0 % 0 m²/s² 0 0 -0.95 3
15:00 306 J/kg -1.4 K 0 % 0 % 0 % 0 m²/s² 0 0 0.7 3
16:00 575 J/kg -2.7 K 0 % 0 % 0 % 0 m²/s² 0 0 -1.41 80
17:00 44 J/kg -1.0 K 0 % 0 % 0 % 0 m²/s² 0 0 -0.64 80
18:00 62 J/kg -2.5 K 0 % 0 % 0 % 0 m²/s² 0 0 -0.52 95
19:00 102 J/kg -1.6 K 0 % 0 % 0 % 0 m²/s² 0 0 0.26 80
20:00 351 J/kg -1.7 K 0 % 0 % 0 % 0 m²/s² 0 0 -0.17
21:00 45 J/kg -0.3 K 0 % 0 % 0 % 0 m²/s² 0 0 1.44
22:00 53 J/kg -0.2 K 0 % 0 % 0 % 0 m²/s² 0 0 0.61
23:00 475 J/kg -2.1 K 0 % 0 % 0 % 0 m²/s² 0 0 -1.26
Temp Baro Wind Neerslag
  EWN Forecast EWN WRFDA DWD ICON FMI HIRLAM MET Norway GFS
 08:14     18:02    Daglengte: 9:48 Morgen
01:00 8.0° 1020.2 hPa 2.1 m/s 0.0 mm 9.0° 1018.9 hPa 3.9 m/s 5.8 mm 7.2° 1020.5 hPa 0.5 m/s -1.2 mm 10.1° 1019.5 hPa 3.7 m/s 0.0 mm 7.9° 1020.3 hPa 2.0 m/s 0.0 mm 7.1° 1021.3 hPa 1.5 m/s
04:00 8.2° 1018.8 hPa 2.8 m/s 0.0 mm 8.5° 1017.8 hPa 5.1 m/s 8.8 mm 7.6° 1019.3 hPa 0.6 m/s 0.0 mm 9.7° 1018.3 hPa 4.3 m/s 0.0 mm 8.2° 1018.8 hPa 2.8 m/s 0.0 mm 7.6° 1019.8 hPa 1.5 m/s
07:00 8.3° 1017.9 hPa 3.2 m/s 2.2 mm 8.3° 1016.9 hPa 5.6 m/s 9.4 mm 7.4° 1018.1 hPa 0.8 m/s 0.6 mm 9.6° 1017.2 hPa 5.3 m/s 0.0 mm 8.6° 1018.0 hPa 3.3 m/s 1.1 mm 7.1° 1019.3 hPa 2.1 m/s
10:00 9.1° 1017.2 hPa 2.7 m/s 1.7 mm 10.3° 1016.3 hPa 5.4 m/s 9.6 mm 8.7° 1017.8 hPa 0.5 m/s 0.1 mm 10.0° 1016.7 hPa 4.6 m/s 0.0 mm 9.1° 1017.2 hPa 2.7 m/s 0.6 mm 8.0° 1018.3 hPa 2.0 m/s
13:00 11.6° 1015.2 hPa 2.3 m/s 0.0 mm 12.0° 1014.8 hPa 5.2 m/s 9.6 mm 12.3° 1015.4 hPa 0.5 m/s 0.0 mm 10.6° 1014.8 hPa 3.3 m/s 0.0 mm 11.7° 1015.1 hPa 2.3 m/s 0.0 mm 13.8° 1016.5 hPa 1.6 m/s
16:00 11.3° 1011.1 hPa 1.5 m/s 0.0 mm 11.7° 1010.1 hPa 3.8 m/s 10.1 mm 12.7° 1012.2 hPa 0.6 m/s 0.1 mm 11.0° 1010.4 hPa 1.6 m/s 0.0 mm 11.0° 1010.7 hPa 1.7 m/s 1.2 mm 11.9° 1011.7 hPa 1.3 m/s
19:00 10.7° 1007.7 hPa 2.0 m/s 4.9 mm 13.0° 1005.2 hPa 9.7 m/s 15.1 mm 10.8° 1010.0 hPa 0.6 m/s 1.3 mm 10.9° 1007.3 hPa 2.3 m/s 0.0 mm 10.5° 1006.6 hPa 1.3 m/s 4.7 mm 10.1° 1008.9 hPa 2.5 m/s
22:00 10.3° 1004.7 hPa 2.2 m/s 9.3 mm 14.0° 1001.6 hPa 10.9 m/s 18.0 mm 9.9° 1005.9 hPa 1.0 m/s 8.8 mm 10.6° 1004.5 hPa 2.9 m/s 0.0 mm 10.2° 1004.4 hPa 1.3 m/s 9.1 mm 11.1° 1004.0 hPa 2.8 m/s
 08:15     18:01    Daglengte: 9:46 Woensdag 13 Nov
01:00 10.8° 1002.7 hPa 1.8 m/s 15.2 mm 14.1° 1000.2 hPa 10.5 m/s 36.8 mm 9.5° 1002.7 hPa 0.6 m/s 11.2 mm 11.0° 1003.9 hPa 3.5 m/s 0.0 mm 11.0° 1002.2 hPa 1.1 m/s 8.9 mm 12.2° 1001.3 hPa 2.8 m/s
04:00 9.8° 1004.7 hPa 2.9 m/s 22.1 mm 11.4° 1003.0 hPa 6.0 m/s 63.9 mm 9.4° 1004.5 hPa 2.7 m/s 22.7 mm 11.1° 1007.6 hPa 5.7 m/s 0.0 mm 9.7° 1004.1 hPa 2.3 m/s 14.5 mm 12.5° 1002.9 hPa 4.7 m/s
07:00 9.5° 1010.0 hPa 2.5 m/s 18.5 mm 10.2° 1008.6 hPa 4.6 m/s 82.2 mm 9.7° 1009.7 hPa 1.7 m/s 9.4 mm 9.2° 1011.4 hPa 1.7 m/s 0.0 mm 9.6° 1010.4 hPa 4.9 m/s 8.2 mm 10.3° 1008.6 hPa 2.5 m/s
10:00 9.6° 1013.6 hPa 1.6 m/s 17.8 mm 10.7° 1010.9 hPa 3.1 m/s 89.4 mm 9.7° 1013.9 hPa 0.7 m/s 2.5 mm 10.2° 1013.9 hPa 2.1 m/s 0.0 mm 9.4° 1013.8 hPa 1.6 m/s 3.0 mm 9.9° 1012.3 hPa 1.5 m/s
13:00 10.9° 1013.9 hPa 3.5 m/s 12.7 mm 11.7° 1011.9 hPa 6.0 m/s 90.9 mm 11.0° 1015.1 hPa 4.0 m/s 1.3 mm 10.6° 1013.4 hPa 3.8 m/s 0.0 mm 10.2° 1014.5 hPa 3.1 m/s 0.9 mm 10.2° 1013.6 hPa 3.2 m/s
16:00 11.1° 1012.3 hPa 3.5 m/s 6.2 mm 11.3° 1010.6 hPa 5.9 m/s 91.5 mm 10.8° 1013.9 hPa 3.0 m/s 0.3 mm 11.1° 1012.3 hPa 3.5 m/s 0.0 mm 10.3° 1012.5 hPa 1.8 m/s
19:00 9.8° 1011.0 hPa 4.3 m/s 0.0 mm 9.8° 1008.6 hPa 4.9 m/s 91.6 mm 9.4° 1013.3 hPa 1.8 m/s 0.0 mm 10.0° 1011.0 hPa 5.4 m/s 0.0 mm 8.8° 1010.8 hPa 2.3 m/s
22:00 9.9° 1007.1 hPa 5.6 m/s 4.7 mm 10.2° 1004.8 hPa 10.3 m/s 91.7 mm 10.0° 1010.1 hPa 4.3 m/s 0.2 mm 9.5° 1007.0 hPa 5.4 m/s 0.6 mm 8.5° 1008.3 hPa 3.3 m/s
 08:17     18:00    Daglengte: 9:43 Donderdag 14 Nov
01:00 7.7° 1007.2 hPa 5.6 m/s 21.1 mm 7.7° 1005.7 hPa 8.3 m/s 103.4 mm 8.1° 1008.8 hPa 5.1 m/s 5.1 mm 6.5° 1007.3 hPa 5.4 m/s 10.5 mm 7.2° 1007.0 hPa 5.3 m/s
04:00 6.2° 1004.7 hPa 5.2 m/s 20.2 mm 4.8° 1003.4 hPa 7.8 m/s 109.2 mm 7.4° 1007.1 hPa 4.1 m/s 1.8 mm 5.9° 1004.5 hPa 5.0 m/s 3.1 mm 4.8° 1004.6 hPa 2.2 m/s
07:00 5.9° 1001.7 hPa 5.4 m/s 21.3 mm 5.0° 1000.7 hPa 8.2 m/s 113.9 mm 6.6° 1005.3 hPa 3.9 m/s 1.1 mm 5.7° 1001.0 hPa 5.6 m/s 0.0 mm 3.6° 1003.8 hPa 2.6 m/s
10:00 6.9° 999.2 hPa 6.1 m/s 13.5 mm 6.9° 997.5 hPa 7.3 m/s 114.5 mm 7.2° 1003.4 hPa 4.5 m/s 0.4 mm 6.7° 998.6 hPa 6.1 m/s 0.8 mm 4.5° 1000.5 hPa 2.6 m/s
13:00 7.3° 997.4 hPa 8.9 m/s 12.2 mm 7.0° 994.0 hPa 11.3 m/s 117.8 mm 9.1° 997.3 hPa 5.8 m/s 0.3 mm 6.3° 999.2 hPa 9.4 m/s 1.6 mm 5.9° 999.3 hPa 3.3 m/s
16:00 6.7° 999.6 hPa 5.6 m/s 37.7 mm 8.2° 995.8 hPa 8.4 m/s 124.5 mm 8.2° 995.4 hPa 7.5 m/s 0.4 mm 5.3° 1003.6 hPa 3.6 m/s 2.8 mm 5.5° 998.7 hPa 4.5 m/s
19:00 5.0° 1001.7 hPa 3.0 m/s 29.2 mm 5.8° 998.3 hPa 1.5 m/s 136.3 mm 6.1° 997.7 hPa 5.9 m/s 2.5 mm 4.1° 1005.3 hPa 2.6 m/s 2.3 mm 6.3° 1000.4 hPa 6.0 m/s
22:00 4.8° 1004.9 hPa 4.6 m/s 150.3 mm 6.5° 999.4 hPa 10.0 m/s 150.3 mm 4.5° 1005.8 hPa 3.7 m/s 6.1° 1001.8 hPa 5.5 m/s
 08:18     17:59    Daglengte: 9:41 Vrijdag 15 Nov
01:00 5.4° 1005.6 hPa 5.2 m/s 162.2 mm 8.1° 1000.6 hPa 8.4 m/s 162.1 mm 5.0° 1006.4 hPa 4.7 m/s 5.9° 1003.4 hPa 5.3 m/s
04:00 4.9° 1007.0 hPa 4.5 m/s 74.4 mm 4.8° 1007.3 hPa 4.5 m/s 5.7° 1003.6 hPa 4.2 m/s 74.4 mm
07:00 4.8° 1007.4 hPa 4.3 m/s 77.5 mm 4.7° 1007.8 hPa 4.4 m/s 5.7° 1003.3 hPa 3.4 m/s 77.5 mm
10:00 5.5° 1007.6 hPa 4.0 m/s 82.4 mm 5.6° 1008.0 hPa 4.1 m/s 5.5° 1003.2 hPa 3.4 m/s 82.4 mm
13:00 6.4° 1007.7 hPa 3.7 m/s 88.4 mm 6.4° 1008.1 hPa 3.8 m/s 6.1° 1003.1 hPa 3.2 m/s 88.4 mm
16:00 5.5° 1009.4 hPa 3.0 m/s 92.4 mm 5.5° 1009.9 hPa 3.0 m/s 5.8° 1004.5 hPa 2.0 m/s 92.4 mm
19:00 4.5° 1011.3 hPa 2.2 m/s 96.3 mm 4.5° 1011.6 hPa 2.3 m/s 4.1° 1008.3 hPa 1.2 m/s 96.3 mm
22:00 4.9° 1012.7 hPa 2.9 m/s 97.6 mm 5.0° 1012.9 hPa 3.0 m/s 4.1° 1011.4 hPa 1.4 m/s 97.6 mm
 08:19     17:58    Daglengte: 9:39 Zaterdag 16 Nov
01:00 5.4° 1014.0 hPa 3.6 m/s 98.6 mm 5.5° 1014.1 hPa 3.8 m/s 4.7° 1012.7 hPa 1.9 m/s 98.6 mm
04:00 5.9° 1014.5 hPa 3.6 m/s 99.1 mm 6.0° 1014.7 hPa 3.7 m/s 5.2° 1012.6 hPa 2.2 m/s 99.1 mm
07:00 6.3° 1015.0 hPa 3.5 m/s 101.2 mm 6.4° 1015.2 hPa 3.6 m/s 5.3° 1012.9 hPa 2.2 m/s 101.2 mm
10:00 7.0° 1016.1 hPa 4.1 m/s 103.3 mm 7.1° 1016.2 hPa 4.2 m/s 6.5° 1014.4 hPa 2.2 m/s 103.3 mm
13:00 7.7° 1017.0 hPa 4.7 m/s 105.4 mm 7.7° 1017.3 hPa 4.9 m/s 8.3° 1014.3 hPa 2.2 m/s 105.4 mm
16:00 7.3° 1017.2 hPa 3.7 m/s 107.1 mm 7.2° 1017.6 hPa 3.8 m/s 8.3° 1013.3 hPa 2.2 m/s 107.1 mm
19:00 6.6° 1017.6 hPa 2.7 m/s 107.5 mm 6.7° 1017.9 hPa 2.7 m/s 5.0° 1014.4 hPa 2.2 m/s 107.5 mm
22:00 5.2° 1016.5 hPa 2.3 m/s 107.6 mm 5.3° 1016.8 hPa 2.3 m/s 4.2° 1014.1 hPa 2.4 m/s 107.6 mm
 08:21     17:57    Daglengte: 9:36 Zondag 17 Nov
01:00 4.0° 1015.3 hPa 2.0 m/s 108.5 mm 3.9° 1015.6 hPa 1.9 m/s 5.3° 1012.1 hPa 2.5 m/s 108.5 mm
04:00 5.7° 1011.6 hPa 2.4 m/s 111.7 mm 5.7° 1011.9 hPa 2.3 m/s 6.1° 1008.7 hPa 2.4 m/s 111.7 mm
07:00 7.4° 1007.9 hPa 2.8 m/s 114.9 mm 7.4° 1008.1 hPa 2.8 m/s 7.5° 1005.6 hPa 2.7 m/s 114.9 mm
10:00 9.7° 1006.0 hPa 2.7 m/s 116.8 mm 9.8° 1006.2 hPa 2.7 m/s 8.3° 1003.6 hPa 2.3 m/s 116.8 mm
13:00 12.0° 1004.1 hPa 2.6 m/s 119.8 mm 12.2° 1004.3 hPa 2.6 m/s 9.9° 1001.4 hPa 2.8 m/s 119.8 mm
16:00 10.1° 1003.3 hPa 3.2 m/s 128.0 mm 10.1° 1003.5 hPa 3.3 m/s 9.3° 1000.7 hPa 2.0 m/s 128.0 mm
19:00 8.0° 1002.8 hPa 3.9 m/s 132.4 mm 8.1° 1002.8 hPa 4.0 m/s 7.4° 1002.2 hPa 2.3 m/s 132.4 mm
22:00 7.1° 1002.2 hPa 2.6 m/s 132.7 mm 7.2° 1002.0 hPa 2.6 m/s 6.1° 1003.8 hPa 2.6 m/s 132.7 mm
 08:22     17:56    Daglengte: 9:34 Maandag 18 Nov
01:00 6.2° 1001.6 hPa 1.3 m/s 132.7 mm 6.3° 1001.3 hPa 1.2 m/s 5.1° 1004.6 hPa 2.7 m/s 132.7 mm
04:00 6.1° 1002.3 hPa 1.6 m/s 132.7 mm 6.2° 1002.1 hPa 1.5 m/s 5.0° 1004.7 hPa 3.3 m/s 132.7 mm
07:00 6.3° 1003.2 hPa 1.8 m/s 132.7 mm 6.2° 1002.9 hPa 1.8 m/s 7.2° 1006.4 hPa 2.2 m/s 132.7 mm
10:00 7.3° 1005.8 hPa 2.5 m/s 133.1 mm 7.3° 1005.5 hPa 2.7 m/s 7.8° 1008.9 hPa 0.6 m/s 133.1 mm
13:00 8.4° 1008.4 hPa 3.3 m/s 133.6 mm 8.4° 1008.2 hPa 3.6 m/s 8.2° 1010.0 hPa 0.4 m/s 133.6 mm
16:00 7.7° 1010.2 hPa 1.9 m/s 134.2 mm 7.6° 1010.2 hPa 1.9 m/s 9.5° 1010.5 hPa 0.9 m/s 134.2 mm
19:00 6.7° 1012.1 hPa 0.4 m/s 134.3 mm 6.7° 1012.2 hPa 0.3 m/s 6.3° 1011.4 hPa 1.3 m/s 134.3 mm
22:00 5.5° 1012.9 hPa 1.0 m/s 134.3 mm 5.5° 1013.0 hPa 0.9 m/s 5.2° 1012.3 hPa 2.2 m/s 134.3 mm
 08:23     17:55    Daglengte: 9:32 Dinsdag 19 Nov
01:00 4.4° 1013.6 hPa 1.6 m/s 134.3 mm 4.3° 1013.7 hPa 1.5 m/s 5.5° 1012.2 hPa 2.4 m/s 134.3 mm
07:00 3.5° 1013.7 hPa 1.4 m/s 137.8 mm 3.2° 1013.6 hPa 1.4 m/s 7.0° 1014.8 hPa 1.5 m/s 137.8 mm
13:00 9.8° 1014.5 hPa 1.4 m/s 138.8 mm 9.8° 1014.3 hPa 1.4 m/s 9.6° 1016.2 hPa 1.0 m/s 138.8 mm
19:00 6.5° 1014.4 hPa 1.7 m/s 138.8 mm 6.6° 1014.3 hPa 1.7 m/s 4.8° 1015.9 hPa 2.2 m/s 138.8 mm
 08:24     17:54    Daglengte: 9:30 Woensdag 20 Nov
01:00 1.5° 1013.3 hPa 2.4 m/s 138.8 mm 1.3° 1013.2 hPa 2.4 m/s 4.0° 1014.5 hPa 2.5 m/s 138.8 mm
07:00 2.4° 1011.2 hPa 2.4 m/s 138.8 mm 2.2° 1011.1 hPa 2.4 m/s 4.2° 1012.2 hPa 2.5 m/s 138.8 mm
13:00 10.8° 1009.3 hPa 1.8 m/s 138.8 mm 10.7° 1009.2 hPa 1.8 m/s 11.4° 1010.7 hPa 2.2 m/s 138.8 mm
19:00 6.3° 1006.8 hPa 1.9 m/s 138.8 mm 6.3° 1006.6 hPa 1.8 m/s 6.4° 1009.5 hPa 3.0 m/s 138.8 mm
 08:26     17:54    Daglengte: 9:28 Donderdag 21 Nov
01:00 6.1° 1005.3 hPa 1.6 m/s 138.8 mm 6.0° 1005.2 hPa 1.5 m/s 6.7° 1006.7 hPa 3.2 m/s 138.8 mm
07:00 4.7° 1004.5 hPa 2.5 m/s 138.8 mm 4.5° 1004.8 hPa 2.5 m/s 7.2° 1000.8 hPa 3.0 m/s 138.8 mm
13:00 11.3° 1002.7 hPa 3.2 m/s 142.6 mm 11.6° 1003.9 hPa 3.4 m/s 8.2° 989.9 hPa 1.5 m/s 142.6 mm
19:00 10.1° 1005.5 hPa 4.1 m/s 0.6 mm
 08:27     17:53    Daglengte: 9:26 Vrijdag 22 Nov
01:00 10.0° 1006.0 hPa 4.4 m/s 1.2 mm
07:00 9.8° 1005.6 hPa 4.4 m/s 1.1 mm
13:00 12.4° 1006.2 hPa 4.3 m/s 1.2 mm
19:00 10.5° 1007.2 hPa 4.0 m/s 1.2 mm
 08:28     17:52    Daglengte: 9:24 Zaterdag 23 Nov
01:00 10.4° 1008.8 hPa 4.8 m/s 0.9 mm
07:00 10.3° 1009.6 hPa 4.3 m/s 0.6 mm
13:00 13.1° 1010.9 hPa 3.4 m/s 0.7 mm
19:00 11.5° 1011.1 hPa 2.5 m/s 1.0 mm
 08:29     17:52    Daglengte: 9:23 Zondag 24 Nov
01:00 11.0° 1011.5 hPa 3.9 m/s 0.9 mm
07:00 11.2° 1010.3 hPa 4.0 m/s 1.0 mm
13:00 13.9° 1010.4 hPa 3.8 m/s 1.2 mm
19:00 11.9° 1010.3 hPa 2.9 m/s 1.0 mm
 08:30     17:51    Daglengte: 9:21 Maandag 25 Nov
01:00 11.0° 1011.3 hPa 3.4 m/s 0.8 mm
07:00 10.7° 1011.7 hPa 2.2 m/s 1.5 mm
13:00 13.3° 1013.2 hPa 1.3 m/s 1.6 mm
19:00 10.9° 1013.2 hPa 1.7 m/s 1.6 mm
 08:32     17:50    Daglengte: 9:18 Dinsdag 26 Nov
01:00 10.4° 1013.5 hPa 2.6 m/s 1.1 mm
07:00 9.9° 1013.2 hPa 2.1 m/s 1.3 mm
13:00 13.3° 1013.9 hPa 1.4 m/s 0.5 mm
19:00 10.5° 1014.1 hPa 1.3 m/s 0.9 mm
FMI Hirlam - 7.5 km EWN WRFDA - 12 km DWD ICON - 7 km GFS - 25 km Basiskaart






























































Updatetijd (Europe/Amsterdam) Resolutie Lengte Stap
FMI Hirlam 18:00, 00:00, 06:00, 12:00 7.5 km 49h 1h
EWN WRFDA 20:45, 02:45, 08:45, 14:45 12 km 73h 1h
DWD ICON 22:45, 04:45, 10:45, 16:45 7 km 75h 1h
GFS 19:30, 01:30, 07:30, 13:30 25 km 237h 3h
30+ mm
25-30 mm
20-25 mm
15-20 mm
10-15 mm
6-10 mm
4-6 mm
2-4 mm
1-2 mm
0.5-1 mm
0.2-0.5 mm
0.1-0.2 mm
30+ mm
25-30 mm
20-25 mm
15-20 mm
10-15 mm
6-10 mm
4-6 mm
2-4 mm
1-2 mm
0.5-1 mm
0.2-0.5 mm
0.1-0.2 mm
Sneeuwval
Natte sneeuw
Hagel
Vorst
30+ mm
25-30 mm
20-25 mm
15-20 mm
10-15 mm
6-10 mm
4-6 mm
2-4 mm
1-2 mm
0.5-1 mm
0.2-0.5 mm
0.1-0.2 mm
Sneeuwval
Natte sneeuw
Hagel
Vorst
Onweer
50 mm
40 mm
30 mm
26 mm
22 mm
18 mm
14 mm
10 mm
9 mm
8 mm
7 mm
6 mm
5 mm
4.5 mm
4 mm
3.5 mm
3 mm
2.5 mm
2 mm
1.5 mm
1 mm
0.8 mm
0.6 mm
0.4 mm
0.2 mm
0.05 mm
35°
30°
25°
20°
15°
10°
-5°
-10°
-15°
-20°
-25°
-30°
-35°
120> km/h
105 km/h
90 km/h
75 km/h
60 km/h
50 km/h
40 km/h
30 km/h
20 km/h
10 km/h
0 km/h
2600 J/kg
2400 J/kg
2200 J/kg
2000 J/kg
1800 J/kg
1600 J/kg
1400 J/kg
1200 J/kg
1000 J/kg
800 J/kg
600 J/kg
400 J/kg
200 J/kg
70 dBZ
65 dBZ
60 dBZ
55 dBZ
50 dBZ
45 dBZ
40 dBZ
35 dBZ
30 dBZ
25 dBZ
20 dBZ
15 dBZ
10 dBZ
5 dBZ
-1 K
-2 K
-3 K
-4 K
-5 K
-6 K
-7 K
-8 K
-9 K
950 m²/s²
900 m²/s²
850 m²/s²
800 m²/s²
750 m²/s²
700 m²/s²
650 m²/s²
600 m²/s²
550 m²/s²
500 m²/s²
450 m²/s²
400 m²/s²
350 m²/s²
300 m²/s²
250 m²/s²
200 m²/s²
150 m²/s²
100 m²/s²
46 m/s
44 m/s
42 m/s
40 m/s
38 m/s
36 m/s
34 m/s
32 m/s
30 m/s
28 m/s
26 m/s
24 m/s
22 m/s
20 m/s
16 m/s
12 m/s
8 m/s
4 m/s
30 m/s
28 m/s
26 m/s
24 m/s
22 m/s
20 m/s
18 m/s
16 m/s
14 m/s
12 m/s
10 m/s
8 m/s
6 m/s
4 m/s
2 m/s
3.0
2.8
2.6
2.4
2.2
2.0
1.8
1.6
1.4
1.2
1.0
0.8
0.6
0.4
0.2
15
14
13
12
11
10
9
8
7
6
5
4
3
2
1
90%
80%
70%
60%
50%
40%
30%
20%
10%
42
40
38
36
34
32
30
28
26
24
22
20
18
16
14
12
90+ cm
80-90 cm
70-80 cm
60-70 cm
50-60 cm
40-50 cm
30-40 cm
20-30 cm
10-20 cm
1-10 cm
Sneeuwval
Natte sneeuw
Regen
>120 mm
115 mm
110 mm
105 mm
100 mm
95 mm
90 mm
85 mm
80 mm
75 mm
70 mm
65 mm
60 mm
55 mm
50 mm
45 mm
45 mm
40 mm
35 mm
30 mm
25 mm
20 mm
15 mm
10 mm
5 mm
0.1 mm
960 hPa
880 hPa
800 hPa
720 hPa
640 hPa
560 hPa
584 gpdm
568 gpdm
552 gpdm
536 gpdm
520 gpdm
504 gpdm
488 gpdm
Extreem zwaar Noodweer Kans op onweer
15% 15% 5% 50% 15%

Dag




Kaart






35°